Voltar ao catálogo

PICOSAT 6

AtivoCiênciaLEO
NORAD 26094·PAYLOAD·🇺🇸 United States

Lançado Jan 27, 2000 de Vandenberg Space Force Base

Loading…

Próximas Passagens (próximas 24 horas)

TLE

AtualizadoSource: Space-Track

Época: Sep 14, 2026, 07:31 UTC

1 26094U 00004M   26257.31371248  .00000374  00000-0  11828-3 0  9993
2 26094 100.2130 292.6799 0030942 289.7812  70.0039 14.47387508398128

Acompanhe PICOSAT 6 em tempo real com AllMySat

Download on the App Store